GW2834 Weather Reports


Display with metric or nautical units.
time (UTC)temp
F
wind
direction
speed
MPH
gust
MPH
rain 1hr
in
rain 24hr
in
rain mn
in
humidity
%
barometer
mb
20260505152352 75 206 2.0 5.0 0.00 0.00 0.00 54 1017.5
20260505150920 74 320 2.0 4.0 0.00 0.00 0.00 55 1017.7
20260505124913 61 280 1.0 3.0 0.00 0.00 0.00 79 1017.5
20260505123911 60 244 1.0 4.0 0.00 0.00 0.00 80 1017.5
20260505122911 59 159 1.0 2.0 0.00 0.00 0.00 82 1017.5
20260505121912 58 156 0.0 2.0 0.00 0.00 0.00 82 1017.5
20260505121345 57 152 0.0 2.0 0.00 0.00 0.00 84 1017.5
20260505115912 56 153 0.0 1.0 0.00 0.00 0.00 85 1017.4
20260505114912 55 153 0.0 2.0 0.00 0.00 0.00 88 1017.4
20260505113913 54 153 0.0 2.0 0.00 0.00 0.00 88 1017.4
20260505112912 53 153 0.0 2.0 0.00 0.00 0.00 88 1017.4
20260505111909 53 153 0.0 1.0 0.00 0.00 0.00 87 1017.2
20260505110909 53 153 1.0 2.0 0.00 0.00 0.00 86 1017.0
20260505101907 53 153 0.0 0.0 0.00 0.00 0.00 83 1016.4
20260505100908 54 153 0.0 0.0 0.00 0.00 0.00 83 1016.4
20260505095906 54 153 0.0 2.0 0.00 0.00 0.00 82 1016.3
20260505094905 54 153 0.0 2.0 0.00 0.00 0.00 82 1016.3
20260505093904 54 154 0.0 2.0 0.00 0.00 0.00 81 1016.1
20260505092906 55 154 0.0 2.0 0.00 0.00 0.00 81 1016.1
20260505091904 55 154 0.0 2.0 0.00 0.00 0.00 80 1016.1
20260505090902 56 154 0.0 1.0 0.00 0.00 0.00 79 1016.0
20260505090342 56 154 0.0 2.0 0.00 0.00 0.00 78 1016.1
20260505085828 56 154 0.0 1.0 0.00 0.00 0.00 78 1015.9
20260505083904 56 154 0.0 1.0 0.00 0.00 0.00 78 1015.9
20260505082903 57 154 0.0 1.0 0.00 0.00 0.00 77 1015.9
20260505081903 57 154 0.0 2.0 0.00 0.00 0.00 77 1015.9
20260505080903 58 154 0.0 2.0 0.00 0.00 0.00 76 1015.8
20260505075904 58 154 1.0 2.0 0.00 0.00 0.00 76 1015.8
20260505074902 58 153 0.0 2.0 0.00 0.00 0.00 75 1015.6
20260505073900 59 152 1.0 3.0 0.00 0.00 0.00 74 1015.6
20260505072900 59 196 0.0 2.0 0.00 0.00 0.00 73 1015.5
20260505071900 59 197 0.0 2.0 0.00 0.00 0.00 73 1015.5
20260505070858 60 197 0.0 2.0 0.00 0.00 0.00 73 1015.5
20260505065858 60 197 1.0 3.0 0.00 0.00 0.00 73 1015.5
20260505064900 60 143 1.0 3.0 0.00 0.00 0.00 72 1015.5
20260505064337 60 144 1.0 2.0 0.00 0.00 0.00 71 1015.5
20260505062856 61 144 1.0 3.0 0.00 0.00 0.00 71 1015.5
20260505061857 61 160 1.0 3.0 0.00 0.00 0.00 70 1015.5
20260505060857 61 157 1.0 3.0 0.00 0.00 0.00 70 1015.5
20260505055858 62 156 1.0 4.0 0.00 0.00 0.00 70 1015.6
20260505054856 62 158 1.0 4.0 0.00 0.00 0.00 69 1015.5
20260505054819 62 106 1.0 3.0 0.00 0.00 0.00 69 1015.5
20260505052854 62 127 2.0 4.0 0.00 0.00 0.00 68 1015.6
20260505051854 63 228 2.0 4.0 0.00 0.00 0.00 68 1015.7
20260505050854 63 171 1.0 3.0 0.00 0.00 0.00 67 1015.7
20260505040850 64 157 2.0 7.0 0.00 0.00 0.00 65 1015.6
20260505035850 65 239 2.0 4.0 0.00 0.00 0.00 65 1015.6
20260505034849 65 154 2.0 4.0 0.00 0.00 0.00 65 1015.5
20260505034802 65 155 1.0 4.0 0.00 0.00 0.00 66 1015.6
20260505032849 65 157 2.0 6.0 0.00 0.00 0.00 65 1015.5
20260505031849 65 133 1.0 5.0 0.00 0.00 0.00 65 1015.4
20260505030850 66 182 2.0 7.0 0.00 0.00 0.00 64 1015.4
20260505025846 66 98 2.0 5.0 0.00 0.00 0.00 63 1015.4
20260505024846 67 161 2.0 5.0 0.00 0.00 0.00 62 1015.4
20260505023846 67 173 2.0 6.0 0.00 0.00 0.00 60 1015.5
20260505022848 68 105 2.0 6.0 0.00 0.00 0.00 58 1015.3
20260505021846 68 149 2.0 13.0 0.00 0.00 0.00 54 1015.2
20260505020845 68 123 2.0 6.0 0.00 0.00 0.00 52 1015.1
20260505015845 68 137 2.0 4.0 0.00 0.00 0.00 51 1014.9
20260505014844 68 160 1.0 3.0 0.00 0.00 0.00 51 1014.8
20260505013844 68 159 1.0 3.0 0.00 0.00 0.00 50 1014.7
20260505012845 69 156 1.0 3.0 0.00 0.00 0.00 49 1014.6
20260505011845 69 142 1.0 4.0 0.00 0.00 0.00 49 1014.4
20260505010846 69 144 1.0 5.0 0.00 0.00 0.00 49 1014.4
20260505010325 68 163 1.0 3.0 0.00 0.00 0.00 49 1014.3
20260505005331 69 159 0.0 2.0 0.00 0.00 0.00 48 1014.2
20260505003845 69 171 0.0 0.0 0.00 0.00 0.00 46 1014.2
20260505002845 70 173 1.0 2.0 0.00 0.00 0.00 46 1014.0
20260505001844 70 167 0.0 1.0 0.00 0.00 0.00 44 1013.9
20260505001343 71 167 1.0 2.0 0.00 0.00 0.00 43 1013.9
20260504235845 71 171 1.0 2.0 0.00 0.00 0.00 43 1013.8
20260504235333 72 276 0.0 0.0 0.00 0.00 0.00 42 1013.7
20260504233845 73 276 0.0 1.0 0.00 0.00 0.00 41 1013.6
20260504232845 74 276 0.0 1.0 0.00 0.00 0.00 40 1013.5
20260504231844 75 276 1.0 3.0 0.00 0.00 0.00 38 1013.5
20260504230844 75 283 1.0 4.0 0.00 0.00 0.00 39 1013.6
20260504230320 76 246 1.0 3.0 0.00 0.00 0.00 37 1013.5
20260504224845 76 144 0.0 3.0 0.00 0.00 0.00 38 1013.5
20260504223846 76 233 1.0 4.0 0.00 0.00 0.00 36 1013.5
20260504222842 77 307 1.0 3.0 0.00 0.00 0.00 35 1013.5
20260504222331 77 147 1.0 4.0 0.00 0.00 0.00 36 1013.4
20260504220842 78 125 2.0 5.0 0.00 0.00 0.00 35 1013.4
20260504220319 78 215 1.0 4.0 0.00 0.00 0.00 35 1013.5
20260504214842 78 221 1.0 4.0 0.00 0.00 0.00 36 1013.5
20260504213843 79 17 1.0 4.0 0.00 0.00 0.00 34 1013.5
20260504212840 79 122 1.0 3.0 0.00 0.00 0.00 34 1013.5
20260504211842 79 161 2.0 6.0 0.00 0.00 0.00 34 1013.5
20260504211319 79 145 2.0 7.0 0.00 0.00 0.00 34 1013.5
20260504205841 79 99 1.0 4.0 0.00 0.00 0.00 34 1013.5
20260504204840 79 238 2.0 5.0 0.00 0.00 0.00 34 1013.6
20260504204321 80 226 1.0 4.0 0.00 0.00 0.00 35 1013.7
20260504202840 80 302 1.0 4.0 0.00 0.00 0.00 35 1013.8
20260504201840 79 216 1.0 7.0 0.00 0.00 0.00 35 1013.9
20260504201326 79 248 2.0 8.0 0.00 0.00 0.00 37 1014.0
20260504195840 78 206 2.0 7.0 0.00 0.00 0.00 35 1014.0
20260504194841 79 238 2.0 5.0 0.00 0.00 0.00 36 1014.2
20260504193841 77 215 1.0 5.0 0.00 0.00 0.00 36 1014.4
20260504192838 77 32 2.0 9.0 0.00 0.00 0.00 37 1014.5
20260504191839 78 296 2.0 8.0 0.00 0.00 0.00 38 1014.6
20260504190838 78 175 2.0 5.0 0.00 0.00 0.00 38 1014.6
20260504185838 77 23 1.0 5.0 0.00 0.00 0.00 37 1014.7
20260504184837 78 19 2.0 5.0 0.00 0.00 0.00 36 1014.9
20260504183839 77 34 2.0 5.0 0.00 0.00 0.00 36 1014.8
20260504182839 77 63 2.0 5.0 0.00 0.00 0.00 39 1014.9
20260504182331 77 148 2.0 4.0 0.00 0.00 0.00 37 1015.3
20260504181312 76 254 2.0 6.0 0.00 0.00 0.00 36 1015.2
20260504175838 76 196 2.0 3.0 0.00 0.00 0.00 38 1015.4
20260504174839 77 159 2.0 4.0 0.00 0.00 0.00 38 1015.3
20260504173838 76 182 2.0 5.0 0.00 0.00 0.00 38 1015.5
20260504173313 76 1 1.0 3.0 0.00 0.00 0.00 38 1015.5
20260504171833 76 158 2.0 5.0 0.00 0.00 0.00 37 1015.6
20260504171307 75 50 2.0 5.0 0.00 0.00 0.00 39 1015.9
20260504170310 74 22 1.0 4.0 0.00 0.00 0.00 36 1015.9